Zurück zum Katalog

STARLINK-31828

AktivKommunikationVLEO
NORAD 59767·PAYLOAD·🇺🇸 United States

Gestartet May 14, 2024 von Vandenberg Space Force Base

Loading…

Nächste Überflüge (nächste 24 Stunden)

TLE

AktuellSource: CelesTrak SupGP

Epoche: Sep 14, 2026, 21:06 UTC

1 59767C 24091Q   26257.87965278  .00037341  00000+0  12007-2 0  2570
2 59767  53.1586 226.6621 0001541  98.6373 157.2922 15.31685814    17

Verfolge STARLINK-31828 in Echtzeit mit AllMySat

Download on the App Store